Grand Marais, MN

6:12 PM CST on February 19, 2017 (GMT -0600)
Grand Marais-Cook County

Weather History for KCKC - January, 2014

Change the Weather History Date:

Saturday, January 18, 2014

  Actual Average Record
Temperature  
Mean Temperature 5 °F -  
Max Temperature 17 °F 13 °F 39 °F (2017)
Min Temperature -7 °F 0 °F -18 °F (1997)
Degree Days  
Heating Degree Days 60    
Moisture  
Dew Point 4 °F    
Average Humidity 77    
Maximum Humidity 85    
Minimum Humidity 68    
Precipitation  
Precipitation 0.00 in - - ()
Sea Level Pressure  
Sea Level Pressure 29.65 in    
Wind  
Wind Speed 2 mph (SSW)    
Max Wind Speed 12 mph    
Max Gust Speed -    
Visibility 5 miles    
Events Snow    
Averages and records for this station are not official NWS values.
T = Trace of Precipitation, MM = Missing Value Source: NWS Daily Summary

Daily Weather History Graph

Daily Weather History Graph

Search for Another Location

Airport or City:

Trip Planner

Search our weather history database for the weather conditions in past years. The results will help you decide how hot, cold, wet, or windy it might be!

Date:

Astronomy

Jan. 18, 2014 Rise Set
Actual Time 7:43 AM CST 4:40 PM CST
Civil Twilight 7:08 AM CST 5:15 PM CST
Nautical Twilight 6:30 AM CST 5:53 PM CST
Astronomical Twilight 5:53 AM CST 6:30 PM CST
Moon 7:38 PM CST (1/18) 8:29 AM CST (1/18)
Length of Visible Light 10h 06m
Length of Day
8h 57m
Waning Gibbous, 94% of the Moon is Illuminated
Jan 18
Waning Gibbous
Jan 23
Last Quarter
Jan 30
New
Feb 6
First Quarter
Feb 14
Full

Hourly Weather History & Observations

Time (CST) Temp. Windchill Dew Point Humidity Pressure Visibility Wind Dir Wind Speed Gust Speed Precip Events Conditions
12:13 AM -7.6 °F - -13.0 °F 77% 29.71 in 5.0 mi Calm Calm - N/A Snow Light Snow
12:34 AM -5.8 °F - -11.2 °F 77% 29.71 in 2.5 mi Calm Calm - N/A Snow Light Snow
12:54 AM -5.8 °F - -11.2 °F 77% 29.70 in 3.0 mi Calm Calm - N/A Snow Light Snow
1:13 AM -5.8 °F - -11.2 °F 77% 29.69 in 2.0 mi Calm Calm - N/A Snow Light Snow
1:34 AM -4.0 °F - -9.4 °F 78% 29.69 in 1.0 mi Calm Calm - N/A Snow Light Snow
1:54 AM -2.2 °F - -7.6 °F 78% 29.69 in 1.8 mi Calm Calm - N/A Snow Light Snow
2:13 AM -0.4 °F - -5.8 °F 78% 29.69 in 1.0 mi Calm Calm - N/A Snow Light Snow
2:34 AM -0.4 °F - -5.8 °F 78% 29.69 in 1.2 mi Calm Calm - N/A Snow Light Snow
2:54 AM 1.4 °F - -4.0 °F 78% 29.69 in 1.5 mi Calm Calm - N/A Snow Light Snow
3:14 AM 1.4 °F - -2.2 °F 85% 29.69 in 1.2 mi Calm Calm - N/A Snow Snow
3:33 AM 1.4 °F - -4.0 °F 78% 29.69 in 1.0 mi Calm Calm - N/A Snow Snow
3:53 AM 1.4 °F - -2.2 °F 85% 29.69 in 0.8 mi Calm Calm - N/A Snow Snow
4:14 AM 3.2 °F - -2.2 °F 78% 29.68 in 1.2 mi Calm Calm - N/A Snow Light Snow
4:33 AM 3.2 °F - -0.4 °F 85% 29.68 in 1.8 mi Calm Calm - N/A Snow Light Snow
4:53 AM 3.2 °F -4.2 °F -0.4 °F 85% 29.68 in 1.0 mi ENE 3.5 mph - N/A Snow Snow
5:14 AM 6.8 °F - 1.4 °F 79% 29.69 in 1.2 mi Calm Calm - N/A Snow Light Snow
5:34 AM 8.6 °F - 3.2 °F 79% 29.69 in 1.8 mi Calm Calm - N/A Snow Light Snow
5:53 AM 6.8 °F - 1.4 °F 79% 29.69 in 0.8 mi Calm Calm - N/A Snow Snow
6:13 AM 8.6 °F - 3.2 °F 79% 29.70 in 1.8 mi Calm Calm - N/A Snow Light Snow
6:34 AM 8.6 °F - 3.2 °F 79% 29.71 in 1.5 mi Calm Calm - N/A Snow Light Snow
6:53 AM 8.6 °F - 3.2 °F 79% 29.71 in 2.0 mi Calm Calm - N/A Snow Light Snow
7:13 AM 8.6 °F - 3.2 °F 79% 29.72 in 1.5 mi Calm Calm - N/A Snow Light Snow
7:34 AM 8.6 °F - 3.2 °F 79% 29.72 in 2.0 mi Calm Calm - N/A Snow Light Snow
7:54 AM 8.6 °F 2.0 °F 3.2 °F 79% 29.72 in 3.0 mi East 3.5 mph - N/A Snow Light Snow
8:13 AM 8.6 °F - 3.2 °F 79% 29.73 in 2.0 mi Calm Calm - N/A Snow Light Snow
8:34 AM 8.6 °F - 3.2 °F 79% 29.73 in 3.0 mi Calm Calm - N/A Snow Light Snow
8:54 AM 8.6 °F - 3.2 °F 79% 29.74 in 2.5 mi Calm Calm - N/A Snow Light Snow
9:13 AM 8.6 °F - 5.0 °F 85% 29.75 in 2.5 mi Calm Calm - N/A Snow Light Snow
9:34 AM 10.4 °F - 5.0 °F 79% 29.76 in 2.5 mi Calm Calm - N/A Snow Light Snow
9:53 AM 10.4 °F - 6.8 °F 85% 29.76 in 2.0 mi Calm Calm - N/A Snow Light Snow
10:13 AM 12.2 °F - 6.8 °F 79% 29.77 in 3.0 mi Calm Calm - N/A Snow Light Snow
10:34 AM 12.2 °F - 6.8 °F 79% 29.77 in 3.0 mi Calm Calm - N/A Snow Light Snow
10:53 AM 12.2 °F - 6.8 °F 79% 29.77 in 4.0 mi Calm Calm - N/A Snow Light Snow
11:13 AM 12.2 °F 6.1 °F 6.8 °F 79% 29.77 in 2.5 mi SSW 3.5 mph - N/A Snow Light Snow
11:34 AM 12.2 °F 2.9 °F 8.6 °F 85% 29.76 in 3.0 mi South 5.8 mph - N/A Snow Light Snow
11:53 AM 14.0 °F 6.5 °F 8.6 °F 79% 29.76 in 4.0 mi South 4.6 mph - N/A Snow Light Snow
12:14 PM 14.0 °F 6.5 °F 8.6 °F 79% 29.75 in 2.5 mi SSW 4.6 mph - N/A Snow Light Snow
12:33 PM 14.0 °F 5.1 °F 8.6 °F 79% 29.75 in 2.0 mi South 5.8 mph - N/A Snow Light Snow
12:53 PM 15.8 °F 8.6 °F 6.8 °F 68% 29.74 in 4.0 mi South 4.6 mph - N/A Snow Light Snow
1:13 PM 15.8 °F 6.1 °F 6.8 °F 68% 29.73 in 10.0 mi SSW 6.9 mph - N/A Snow Light Snow
1:33 PM 15.8 °F 5.1 °F 6.8 °F 68% 29.72 in 10.0 mi SSW 8.1 mph - N/A Snow Light Snow
1:54 PM 15.8 °F 7.2 °F 6.8 °F 68% 29.70 in 10.0 mi South 5.8 mph - N/A Snow Light Snow
2:13 PM 15.8 °F 7.2 °F 6.8 °F 68% 29.70 in 10.0 mi SSW 5.8 mph - N/A Snow Light Snow
2:33 PM 15.8 °F 6.1 °F 6.8 °F 68% 29.70 in 10.0 mi SW 6.9 mph - N/A   Clear
2:54 PM 15.8 °F 10.2 °F 6.8 °F 68% 29.70 in 10.0 mi SSW 3.5 mph - N/A   Clear
3:13 PM 15.8 °F 6.1 °F 6.8 °F 68% 29.70 in 10.0 mi SSW 6.9 mph - N/A   Clear
3:33 PM 15.8 °F 8.6 °F 6.8 °F 68% 29.70 in 10.0 mi SSW 4.6 mph - N/A   Clear
3:54 PM 14.0 °F 8.2 °F 6.8 °F 73% 29.71 in 10.0 mi SSW 3.5 mph - N/A   Clear
4:13 PM 14.0 °F 8.2 °F 6.8 °F 73% 29.69 in 10.0 mi SW 3.5 mph - N/A   Clear
4:34 PM 12.2 °F 6.1 °F 6.8 °F 79% 29.69 in 10.0 mi SW 3.5 mph - N/A   Clear
4:54 PM 12.2 °F 6.1 °F 6.8 °F 79% 29.68 in 10.0 mi SW 3.5 mph - N/A   Clear
5:13 PM 12.2 °F 4.3 °F 6.8 °F 79% 29.66 in 10.0 mi SSW 4.6 mph - N/A   Clear
5:34 PM 12.2 °F 1.7 °F 5.0 °F 73% 29.64 in 10.0 mi SSW 6.9 mph - N/A   Scattered Clouds
5:54 PM 12.2 °F 4.3 °F 5.0 °F 73% 29.62 in 10.0 mi SSW 4.6 mph - N/A   Clear
6:13 PM 12.2 °F 4.3 °F 5.0 °F 73% 29.61 in 10.0 mi SSW 4.6 mph - N/A   Clear
6:34 PM 10.4 °F 0.8 °F 5.0 °F 79% 29.58 in 10.0 mi SSW 5.8 mph - N/A   Clear
6:53 PM 10.4 °F 0.8 °F 3.2 °F 73% 29.58 in 10.0 mi SSW 5.8 mph - N/A   Clear
7:13 PM 12.2 °F 4.3 °F 5.0 °F 73% 29.57 in 10.0 mi SSW 4.6 mph - N/A   Scattered Clouds
7:33 PM 12.2 °F 1.7 °F 5.0 °F 73% 29.55 in 5.0 mi SW 6.9 mph - N/A Snow Light Snow
7:54 PM 12.2 °F 1.7 °F 6.8 °F 79% 29.52 in 2.0 mi SSW 6.9 mph - N/A Snow Light Snow
8:13 PM 12.2 °F 1.7 °F 6.8 °F 79% 29.51 in 2.5 mi SSW 6.9 mph - N/A Snow Light Snow
8:33 PM 12.2 °F 4.3 °F 6.8 °F 79% 29.49 in 2.5 mi SSW 4.6 mph - N/A Snow Light Snow
8:53 PM 12.2 °F 6.1 °F 8.6 °F 85% 29.47 in 2.5 mi SW 3.5 mph - N/A Snow Light Snow
9:13 PM 12.2 °F 2.9 °F 8.6 °F 85% 29.46 in 5.0 mi SW 5.8 mph - N/A Snow Light Snow
9:34 PM 14.0 °F 2.9 °F 8.6 °F 79% 29.44 in 4.0 mi SW 8.1 mph - N/A Snow Light Snow
9:54 PM 15.8 °F 5.1 °F 10.4 °F 79% 29.42 in 4.0 mi WSW 8.1 mph - N/A Snow Light Snow
10:14 PM 15.8 °F 2.7 °F 10.4 °F 79% 29.40 in 7.0 mi SW 11.5 mph - N/A Snow Light Snow
10:33 PM 15.8 °F 6.1 °F 10.4 °F 79% 29.39 in 7.0 mi WSW 6.9 mph - N/A   Overcast
10:53 PM 15.8 °F 6.1 °F 10.4 °F 79% 29.39 in 7.0 mi West 6.9 mph - N/A Snow Light Snow
11:13 PM 17.6 °F 7.3 °F 10.4 °F 73% 29.37 in 10.0 mi West 8.1 mph - N/A   Overcast
11:33 PM 17.6 °F 10.7 °F 12.2 °F 79% 29.36 in 7.0 mi West 4.6 mph - N/A Snow Light Snow
11:53 PM 17.6 °F 7.3 °F 12.2 °F 79% 29.35 in 4.0 mi West 8.1 mph - N/A Snow Light Snow